Wetbulb
75.45 75.78 76.16 75.73 75.82 75.93 75.63 76.06 76.37 77.36 77.61 77.14 77.54 77.29 77.23 77.01 77.45 78.58 78.09 77.76 77.18 77.39 77.39 77.34 77.31 79.94 75.58 74.72 75.47 74.65 73.22 72.59 70.73 72.34 73.63 77.74 77.26 76.80 77.27 77.94 77.47 74.96 72.40
75.71 75.85 75.35 75.92 76.18 75.40 75.74 76.00 76.74 77.24 78.01 77.67 78.00 77.50 76.68 76.85 77.54 77.19 76.38 76.07 76.22 75.86 76.06 77.75 76.34 75.16 79.50 79.70 75.25 77.57 75.23 76.79 72.60 75.18 74.42 74.56 76.68 77.54 77.57 77.61 76.57 75.76 72.31
75.89 75.31 75.43 75.68 75.64 75.62 75.86 76.57 76.55 77.56 77.54 77.43 77.67 77.29 77.20 77.06 77.25 77.23 77.28 76.75 76.44 75.89 76.53 76.50 76.63 76.28 76.95 76.36 77.31 76.43 75.52 74.26 76.63 74.81 72.31 75.42 73.98 75.44 76.28 77.54 78.22 74.63 70.40
75.88 76.78 77.22 76.29 76.68 75.95 76.31 77.20 76.81 77.96 78.51 78.38 78.07 78.20 77.57 77.24 76.76 77.33 77.04 76.84 76.78 76.22 76.93 76.09 76.61 75.25 76.67 77.20 76.16 77.54 77.06 75.66 75.64 73.10 73.13 73.34 73.34 77.22 74.10 73.20 72.79 74.65 70.90
76.38 76.06 77.24 78.41 78.05 78.37 77.83 78.18 77.32 78.08 78.41 78.43 77.36 77.21 76.95 76.41 75.51 77.01 77.87 77.23 76.87 76.31 76.90 76.45 76.35 75.67 72.47 73.51 75.08 77.90 77.55 74.43 74.95 77.14 72.22 72.20 72.21 72.70 74.21 74.23 73.42 77.38 74.32
77.04 75.78 77.60 77.55 77.59 77.70 77.40 77.50 77.93 77.38 77.26 77.79 77.03 77.59 76.34 76.60 66.20 67.36 70.51 75.87 76.16 76.60 75.99 77.31 77.03 74.80 73.89 71.17 71.29 70.03 71.45 76.21 76.05 72.94 71.94 71.34 75.06 74.44 74.91 76.27 73.87 71.35 71.89
76.97 76.84 77.06 78.09 77.65 78.22 77.62 77.73 77.12 77.29 78.07 78.35 77.27 76.76 76.62 74.11 60.62 61.96 64.39 74.32 76.43 75.34 75.88 75.22 74.29 74.91 73.88 75.81 69.07 68.21 67.89 67.97 69.50 74.27 74.16 74.99 75.33 76.52 76.08 75.97 75.62 74.81 74.14
76.39 76.42 76.53 77.12 76.67 76.99 76.59 76.81 78.45 78.33 78.25 78.17 76.89 76.62 76.17 66.25 59.20 59.56 61.73 72.98 74.97 75.83 76.06 75.67 75.56 75.11 73.30 73.31 75.03 75.53 75.55 72.72 71.36 71.16 76.14 74.53 72.97 73.26 74.96 76.00 75.53 75.25 74.54
74.48 74.92 75.01 73.65 74.76 75.08 74.48 77.83 78.07 77.71 77.22 75.91 74.88 71.15 72.97 66.16 58.26 58.71 63.28 73.17 74.41 74.76 74.75 73.95 70.75 73.44 61.82 61.06 70.42 72.85 74.17 70.01 60.30 59.58 59.60 59.84 60.53 61.70 65.68 72.94 74.33 72.91 72.41
74.22 74.72 75.56 74.94 75.19 73.51 73.01 74.76 73.34 75.30 71.81 71.45 65.25 65.68 60.96 64.75 56.21 56.33 62.15 71.40 72.52 73.79 74.36 70.96 57.51 59.06 56.54 59.22 67.71 72.75 72.72 71.33 65.77 65.54 63.46 63.79 65.14 64.66 63.88 68.07 67.26 67.04 68.20
71.67 73.20 72.44 73.09 73.01 73.04 72.99 73.12 73.07 71.08 69.20 64.73 61.50 60.59 60.43 56.35 58.71 54.88 57.75 68.59 68.95 69.44 67.57 62.71 58.94 53.65 53.13 54.37 58.78 66.60 68.07 70.27 66.29 69.03 67.45 68.38 67.56 65.92 63.00 61.91 62.27 60.57 61.67
71.65 71.55 71.90 71.85 71.22 69.98 69.19 68.25 62.97 60.75 59.44 58.44 58.20 57.69 58.88 56.73 54.74 54.64 55.25 57.51 60.99 62.31 58.90 57.79 53.68 50.97 50.51 51.89 55.63 54.63 56.73 62.56 63.14 61.25 57.36 57.52 56.48 60.05 58.11 57.72 59.18 57.44 56.57
70.52 69.36 67.81 67.17 67.99 68.55 67.20 64.68 62.41 59.92 58.48 57.61 57.27 56.37 56.35 57.63 57.39 53.94 53.76 55.63 56.39 62.12 60.68 54.15 52.76 51.66 52.06 54.97 53.85 55.20 57.14 58.67 56.67 54.60 52.53 52.69 53.62 55.02 57.80 58.03 57.24 57.31 57.78
66.76 65.28 63.39 61.93 63.62 64.61 64.99 64.35 62.50 61.48 60.39 59.92 59.42 58.40 58.11 58.47 59.82 60.78 60.58 59.78 57.09 58.03 57.13 57.21 55.70 54.76 54.64 55.71 56.30 55.55 55.15 55.57 55.34 53.33 53.66 53.51 53.29 53.92 53.39 54.79 58.03 57.17 55.42
61.59 61.21 61.30 60.30 56.66 54.83 54.41 54.34 60.97 55.77 55.61 61.96 61.49 59.45 55.59 55.18 52.83 46.37 46.55 59.09 62.17 58.97 60.49 61.16 58.64 58.16 60.38 60.44 58.77 56.93 54.74 54.52 53.62 52.80 52.38 52.94 52.82 53.85 53.71 55.88 54.97 55.31 54.83
61.73 61.61 59.93 60.49 61.32 59.80 59.14 56.36 45.66 45.83 43.92 42.87 43.27 51.16 48.41 44.76 42.49 42.27 42.02 43.44 48.90 50.15 59.10 60.44 59.41 57.33 56.69 57.41 56.98 57.89 58.90 58.72 58.45 57.31 56.83 57.35 57.39 56.84 54.71 54.78 55.40 54.60 54.24
62.01 62.50 62.81 62.69 62.27 61.77 62.44 62.62 60.50 52.04 45.13 43.52 43.26 44.22 43.85 43.71 42.64 41.55 41.57 42.97 45.85 48.19 58.20 59.49 58.89 57.59 57.02 55.13 54.94 55.52 55.49 56.64 57.87 55.59 55.55 56.18 54.99 53.47 51.34 56.62 53.70 53.84 53.84
62.77 56.10 61.42 60.89 60.88 60.65 60.34 59.95 59.83 59.05 59.14 59.13 44.83 49.08 43.41 41.76 41.74 42.09 43.15 45.20 55.70 53.93 57.43 58.62 57.83 57.32 56.18 56.10 55.93 55.39 54.96 54.79 54.63 53.98 53.57 53.60 53.45 52.46 53.12 53.08 53.09 52.32 52.16
61.66 61.35 61.35 60.82 60.06 58.66 58.83 58.17 58.13 57.78 57.57 57.57 57.16 47.10 45.26 42.51 41.69 41.39 41.22 54.35 57.33 56.97 57.69 56.59 57.61 57.63 57.33 56.60 56.23 55.88 55.27 54.64 53.45 53.51 53.53 52.84 52.61 52.10 51.78 50.92 49.66 44.76 46.30
58.88 56.39 58.29 60.15 59.32 60.38 60.49 59.72 59.88 59.59 59.11 58.16 57.24 57.32 54.39 50.55 54.15 56.26 55.25 55.36 55.03 55.65 57.36 58.07 58.70 58.63 57.05 56.50 55.87 55.91 52.93 50.77 51.46 50.69 50.61 49.45 49.55 50.13 48.21 47.63 47.74 47.42 48.09
58.13 57.38 53.15 59.33 60.26 60.54 61.15 60.72 60.22 59.86 58.34 57.99 58.21 54.71 43.37 55.96 56.46 57.37 57.81 57.37 57.06 56.71 58.24 58.13 58.12 58.31 57.48 56.42 55.43 54.19 52.76 52.23 51.30 50.19 50.07 49.62 48.83 48.41 49.68 49.35 48.96 48.76 48.96
60.09 59.35 59.60 60.01 59.01 58.57 59.14 59.32 58.34 57.63 57.44 57.53 58.13 54.43 45.19 54.92 54.90 56.70 57.36 57.30 57.86 58.70 58.60 58.94 57.90 57.49 57.00 56.23 54.98 54.34 53.37 52.18 51.76 50.89 50.65 50.12 49.97 49.68 49.51 49.73 49.61 49.63 49.24
62.46 61.72 60.58 60.78 60.82 54.19 58.02 57.97 58.04 57.91 57.65 57.65 57.72 57.53 56.12 56.14 55.60 56.73 57.51 57.88 58.55 58.21 58.68 58.47 57.53 56.88 57.11 56.08 55.46 54.68 53.09 52.08 51.92 52.06 50.81 50.60 49.70 49.81 50.45 49.73 49.92 49.13 49.65
61.67 61.15 60.72 60.58 59.61 60.00 59.21 59.24 58.86 53.44 56.80 57.10 57.01 57.27 57.42 57.69 57.50 57.42 57.57 57.84 58.01 57.82 57.50 57.01 56.39 55.60 55.60 54.91 54.98 54.26 53.35 53.77 53.05 51.65 51.29 51.37 51.08 48.46 50.03 51.07 50.92 49.84 49.95
61.59 61.08 59.66 59.75 59.45 58.74 58.73 58.53 58.70 58.91 58.05 57.51 57.50 57.40 57.28 57.55 57.63 57.68 57.61 57.54 58.57 57.07 56.91 56.79 55.94 55.19 54.72 54.05 52.73 50.82 40.57 38.63 48.82 41.80 51.51 50.52 50.14 49.28 49.87 50.19 50.02 49.79 48.62
60.32 59.27 57.03 55.95 55.29 55.42 55.42 55.37 55.81 56.35 56.56 57.57 56.99 58.34 57.68 57.15 56.65 57.04 57.36 57.31 57.27 57.50 57.14 56.59 55.69 54.72 54.19 53.55 52.10 39.19 32.95 36.83 43.58 36.48 47.21 49.99 49.67 49.74 50.13 49.56 48.48 49.04 47.96
MSLP
1015.09 1015.61 1016.17 1016.64 1017.03 1017.61 1017.63 1017.91 1018.08 1018.00 1018.15 1018.33 1018.58 1018.63 1018.82 1019.00 1019.15 1019.54 1019.61 1019.39 1019.33 1019.29 1019.44 1019.40 1019.34 1019.39 1019.07 1018.49 1018.09 1017.70 1017.57 1017.45 1017.18 1016.79 1017.06 1017.28 1017.44 1017.48 1017.48 1017.59 1016.96 1017.86 1018.72
1014.30 1015.04 1015.68 1016.19 1016.54 1016.79 1017.18 1017.32 1017.65 1017.84 1017.88 1018.30 1018.67 1018.77 1018.87 1018.86 1018.92 1019.11 1019.36 1019.07 1018.99 1019.11 1019.05 1019.06 1019.10 1018.89 1018.96 1019.06 1018.63 1018.42 1018.10 1017.91 1018.08 1017.87 1017.78 1017.38 1017.32 1017.28 1017.38 1017.56 1017.04 1017.29 1018.52
1013.81 1014.44 1015.08 1015.69 1016.09 1016.37 1016.62 1017.06 1017.22 1017.50 1017.75 1017.87 1018.45 1018.55 1018.60 1018.59 1018.58 1018.79 1018.93 1018.91 1018.82 1018.67 1018.58 1018.66 1018.66 1018.82 1018.93 1018.76 1018.79 1018.49 1018.00 1018.36 1018.38 1018.37 1018.25 1017.05 1017.30 1016.87 1016.94 1017.00 1017.17 1017.99 1018.49
1013.18 1013.81 1014.48 1015.11 1015.56 1015.90 1016.25 1016.62 1016.96 1017.16 1017.41 1017.54 1017.76 1018.07 1018.38 1018.51 1018.48 1018.42 1018.52 1018.81 1018.61 1018.46 1018.48 1018.42 1018.48 1018.76 1018.68 1018.62 1018.88 1019.32 1018.69 1018.62 1018.23 1018.45 1018.12 1017.48 1017.49 1017.69 1017.26 1017.17 1017.48 1017.65 1018.38
1012.83 1013.50 1014.14 1014.86 1015.29 1015.64 1015.86 1016.16 1016.45 1016.69 1016.90 1017.15 1017.39 1017.67 1018.03 1018.12 1017.93 1017.93 1018.38 1018.74 1018.81 1018.75 1018.57 1018.56 1018.32 1018.43 1018.75 1018.94 1018.98 1018.90 1019.22 1019.01 1018.72 1018.90 1018.36 1017.67 1017.17 1017.10 1017.62 1017.57 1017.14 1017.70 1017.83
1012.54 1013.21 1013.80 1014.54 1015.13 1015.47 1015.78 1015.99 1016.25 1016.56 1016.61 1016.88 1017.24 1017.42 1017.86 1018.05 1018.38 1018.68 1018.68 1018.57 1018.65 1018.68 1018.72 1018.74 1018.66 1018.96 1018.91 1018.95 1019.15 1019.21 1019.32 1019.14 1019.03 1018.93 1018.27 1018.34 1017.65 1017.73 1017.64 1017.90 1017.76 1018.09 1017.97
1012.39 1012.99 1013.53 1014.08 1014.68 1015.31 1015.65 1015.79 1015.99 1016.24 1016.34 1016.54 1016.78 1017.18 1017.62 1018.40 1019.04 1019.14 1018.95 1018.66 1018.47 1018.35 1018.46 1018.72 1018.97 1018.99 1019.04 1018.90 1019.25 1019.31 1019.33 1019.37 1019.30 1019.07 1018.76 1018.45 1018.29 1018.23 1018.13 1017.89 1017.87 1017.87 1018.00
1012.72 1013.33 1013.86 1014.27 1014.53 1015.21 1015.41 1015.73 1015.79 1015.96 1016.40 1016.76 1016.99 1017.22 1017.68 1019.07 1019.27 1019.49 1019.32 1018.84 1018.24 1018.02 1018.31 1018.42 1018.77 1019.07 1019.24 1019.16 1018.89 1018.69 1018.74 1019.31 1019.65 1019.25 1018.50 1018.90 1018.77 1018.84 1018.27 1017.96 1018.10 1018.15 1018.03
1013.22 1013.71 1014.12 1014.50 1014.66 1015.15 1015.26 1015.19 1015.81 1016.13 1016.44 1017.03 1017.33 1017.74 1018.26 1019.58 1019.69 1019.84 1019.59 1018.48 1017.95 1018.20 1018.43 1018.94 1019.67 1019.55 1019.91 1019.78 1019.54 1018.84 1018.78 1019.40 1020.35 1020.02 1019.97 1019.85 1019.82 1019.68 1019.01 1018.30 1018.22 1018.38 1018.26
1013.45 1013.83 1014.11 1014.82 1014.92 1015.64 1015.74 1016.08 1016.71 1016.57 1017.47 1017.77 1018.38 1018.95 1019.32 1019.83 1019.96 1019.93 1019.78 1018.84 1018.59 1018.61 1018.82 1019.24 1020.07 1020.70 1020.51 1020.27 1020.04 1019.40 1019.07 1019.17 1019.76 1019.83 1020.24 1019.85 1019.56 1019.64 1019.54 1019.39 1018.97 1018.15 1018.14
1014.24 1014.82 1014.99 1015.17 1015.90 1016.25 1016.21 1016.60 1016.96 1017.64 1018.04 1018.62 1019.19 1019.72 1020.22 1020.53 1020.52 1020.12 1020.20 1019.82 1019.63 1019.39 1019.58 1020.26 1020.76 1021.32 1021.15 1020.72 1020.59 1020.38 1019.91 1019.65 1019.87 1019.60 1019.54 1019.27 1019.13 1019.48 1020.37 1020.83 1020.64 1020.36 1020.22
1014.14 1014.54 1015.52 1015.92 1016.65 1017.05 1017.10 1017.61 1018.17 1018.68 1019.27 1019.49 1019.93 1020.33 1020.65 1020.86 1020.76 1020.96 1020.64 1020.32 1020.42 1020.29 1020.63 1021.19 1021.66 1021.69 1021.65 1021.26 1021.04 1020.89 1020.36 1020.07 1020.22 1020.29 1020.58 1020.82 1021.23 1021.16 1021.92 1021.81 1021.56 1021.56 1021.61
1015.24 1015.92 1016.64 1017.33 1017.43 1017.59 1017.92 1018.52 1019.04 1019.52 1019.35 1019.93 1020.28 1020.72 1020.97 1021.30 1021.54 1021.23 1021.15 1021.00 1020.97 1020.93 1020.98 1021.70 1022.00 1021.88 1021.56 1021.61 1021.71 1021.25 1020.93 1021.01 1021.24 1021.64 1022.13 1022.54 1022.64 1022.63 1022.46 1022.28 1022.28 1022.02 1021.93
1016.14 1016.81 1017.42 1017.87 1018.30 1018.40 1018.61 1018.75 1019.25 1019.71 1020.12 1020.42 1020.77 1021.13 1021.41 1021.57 1021.77 1021.63 1021.58 1021.45 1021.49 1021.86 1021.92 1021.95 1021.81 1021.90 1021.77 1022.06 1021.94 1021.76 1021.66 1021.75 1021.96 1022.36 1022.63 1022.64 1022.91 1022.82 1022.71 1022.57 1022.34 1022.13 1022.08
1017.03 1017.62 1018.18 1018.67 1018.97 1019.24 1019.81 1019.98 1019.50 1020.54 1020.76 1020.66 1020.87 1021.22 1021.50 1021.89 1022.24 1022.11 1022.31 1022.04 1021.65 1021.67 1021.74 1021.76 1022.05 1021.91 1021.56 1021.65 1021.73 1021.99 1022.06 1022.01 1022.16 1022.40 1022.49 1022.58 1022.59 1022.40 1022.45 1022.27 1021.96 1021.70 1021.26
1017.39 1017.68 1018.21 1018.47 1018.65 1019.15 1019.46 1020.02 1020.93 1021.47 1021.59 1021.62 1021.83 1021.79 1022.12 1022.10 1022.35 1022.29 1022.22 1022.24 1022.13 1022.25 1021.80 1021.44 1021.41 1021.67 1021.66 1021.50 1021.48 1021.48 1021.46 1021.48 1021.42 1021.73 1021.90 1021.85 1021.67 1021.60 1021.60 1021.47 1021.62 1021.65 1021.41
1017.27 1017.64 1017.74 1017.79 1018.18 1018.40 1018.58 1018.71 1019.70 1021.67 1022.15 1022.12 1022.09 1022.01 1021.91 1022.40 1022.26 1022.44 1022.44 1022.44 1022.36 1022.52 1021.32 1021.08 1021.30 1021.53 1021.76 1021.92 1021.80 1021.58 1021.66 1021.74 1021.88 1021.78 1021.93 1021.99 1022.14 1022.08 1022.23 1021.62 1021.58 1021.33 1021.28
1017.01 1017.33 1017.10 1017.18 1017.31 1017.41 1017.71 1017.97 1018.69 1019.49 1020.20 1021.42 1022.08 1022.21 1022.41 1022.58 1022.66 1022.57 1022.66 1022.83 1022.29 1022.14 1021.17 1020.82 1020.99 1021.27 1021.62 1021.61 1021.74 1021.70 1021.83 1021.88 1021.79 1022.01 1022.10 1022.24 1022.58 1022.20 1022.10 1021.97 1021.85 1022.22 1022.04
1016.53 1016.58 1016.76 1016.74 1016.95 1017.16 1017.19 1017.72 1018.07 1018.51 1019.09 1019.50 1020.59 1021.65 1022.21 1022.48 1022.74 1022.83 1022.80 1022.05 1020.94 1020.54 1020.10 1020.52 1020.66 1020.66 1021.02 1021.43 1021.77 1021.79 1022.09 1021.73 1022.05 1021.86 1022.11 1022.26 1022.28 1022.44 1022.41 1022.51 1022.76 1023.41 1023.69
1017.32 1017.54 1017.23 1016.87 1017.41 1017.25 1017.27 1017.43 1017.60 1017.84 1018.54 1018.55 1018.68 1019.09 1020.66 1021.63 1021.39 1020.94 1021.03 1020.71 1020.46 1019.85 1019.62 1019.86 1020.15 1020.41 1020.97 1021.51 1021.84 1021.96 1022.23 1022.54 1022.34 1022.68 1022.80 1023.16 1023.31 1023.25 1023.21 1023.51 1023.51 1023.63 1023.44
1016.86 1017.57 1017.97 1016.93 1016.84 1017.01 1017.07 1017.20 1017.34 1017.52 1017.87 1018.02 1018.24 1019.09 1019.84 1019.83 1019.54 1019.07 1019.24 1019.37 1019.53 1019.28 1019.40 1019.81 1020.04 1020.74 1021.10 1021.55 1021.67 1021.97 1022.07 1022.04 1022.53 1022.79 1022.94 1023.22 1023.42 1023.18 1023.40 1023.48 1023.43 1023.47 1023.23
1016.49 1016.76 1016.79 1016.73 1017.15 1017.61 1017.67 1017.63 1017.59 1017.52 1017.51 1017.42 1017.47 1018.66 1019.21 1019.57 1019.29 1018.67 1018.77 1019.14 1019.11 1019.30 1019.42 1019.73 1020.14 1020.54 1020.82 1020.94 1021.32 1021.56 1021.60 1021.65 1021.95 1022.36 1022.47 1022.89 1023.11 1023.13 1023.18 1023.03 1023.15 1023.14 1023.09
1016.11 1016.14 1016.49 1016.73 1017.12 1018.09 1018.16 1017.84 1017.56 1017.43 1017.36 1017.35 1017.44 1017.48 1018.43 1018.51 1018.47 1018.24 1018.42 1018.59 1018.89 1019.37 1019.54 1019.90 1020.20 1020.40 1020.63 1021.08 1021.29 1021.34 1021.31 1021.36 1021.81 1022.15 1022.37 1022.72 1022.99 1022.82 1022.81 1022.71 1022.71 1022.75 1022.60
1016.17 1016.18 1016.25 1016.39 1016.97 1017.26 1017.43 1017.21 1017.26 1017.40 1017.55 1017.61 1017.55 1017.33 1017.33 1017.51 1017.55 1017.72 1017.95 1018.10 1018.52 1019.08 1019.57 1019.97 1020.08 1020.37 1020.66 1021.09 1021.15 1021.23 1021.48 1021.58 1022.13 1022.65 1022.66 1022.40 1022.56 1023.12 1022.77 1022.62 1022.56 1022.71 1022.77
1016.44 1016.44 1016.61 1016.45 1016.59 1016.86 1016.96 1017.22 1016.98 1016.94 1017.12 1017.33 1017.32 1017.45 1017.35 1017.21 1017.13 1017.28 1017.51 1017.84 1018.32 1018.81 1019.19 1019.72 1020.04 1020.26 1020.68 1021.08 1020.99 1021.93 1022.65 1023.09 1023.27 1023.39 1022.92 1022.86 1022.81 1023.00 1022.69 1022.65 1022.85 1023.15 1023.58
1016.88 1016.97 1017.20 1017.19 1017.23 1017.45 1017.62 1017.59 1017.51 1017.39 1017.26 1017.36 1017.64 1017.38 1017.62 1017.93 1017.78 1017.74 1017.71 1018.01 1018.35 1018.55 1018.78 1019.16 1019.80 1020.31 1020.75 1021.36 1021.70 1022.98 1023.46 1023.69 1023.79 1023.96 1023.63 1023.18 1023.05 1023.01 1023.04 1023.12 1023.49 1023.24 1023.45
Wind_Speed
14 13 12 12 13 11 9 9 9 8 4 6 7 7 7 7 7 5 9 9 7 5 7 7 7 6 8 9 9 6 6 6 8 5 7 4 0 3 7 7 10 10 8
14 13 13 12 11 12 11 11 10 10 8 9 7 9 9 10 8 9 10 10 9 10 9 8 9 8 5 7 8 8 7 6 7 6 8 7 2 2 3 4 6 9 10
14 15 14 14 13 12 11 11 11 10 10 10 7 10 10 10 8 8 9 10 10 10 9 9 9 6 5 7 7 9 6 3 4 3 8 4 2 2 3 6 4 12 9
14 12 12 13 12 12 11 11 11 10 9 9 10 9 8 9 10 10 7 10 10 10 6 9 5 6 8 7 6 7 7 8 6 5 7 6 1 6 4 4 4 6 8
13 12 11 10 10 10 10 10 10 11 11 10 9 9 9 10 8 8 8 8 9 10 10 8 8 2 5 1 5 5 5 7 6 3 9 7 6 3 1 3 4 1 2
13 13 11 11 10 10 10 10 9 11 10 10 11 8 8 5 5 4 4 6 7 7 7 6 10 8 7 4 3 6 7 7 7 6 9 7 6 5 5 3 6 3 2
12 12 12 11 11 9 10 11 11 11 11 9 10 9 9 6 5 4 4 5 5 7 8 6 4 7 9 6 6 4 5 4 4 6 8 7 7 5 5 6 3 4 1
7 9 6 8 9 9 11 9 11 10 9 8 8 8 4 7 7 5 6 7 6 5 5 6 6 6 3 8 7 8 6 2 5 7 3 4 5 6 6 5 4 4 3
11 9 7 5 5 5 9 9 10 8 8 2 1 4 7 7 9 8 10 7 5 4 1 5 8 7 9 7 6 9 6 4 4 7 9 8 6 7 7 5 3 5 4
6 4 2 2 2 2 3 1 3 0 5 5 8 8 10 5 10 8 7 7 4 3 4 9 16 10 10 9 7 8 8 5 5 5 4 4 3 8 12 10 8 7 3
8 7 5 5 2 2 2 2 1 3 4 7 8 7 7 6 6 6 6 3 4 2 3 5 6 11 7 8 6 5 6 2 3 4 2 4 4 8 9 9 10 8 6
9 9 6 6 4 5 7 6 7 8 6 5 6 5 4 4 8 6 7 8 4 4 4 5 6 7 12 11 7 8 10 7 4 7 7 8 6 6 5 5 6 5 5
11 11 10 9 7 7 8 8 7 5 5 4 4 3 3 2 2 6 8 9 10 3 5 7 4 4 5 8 11 11 10 5 6 6 5 3 2 3 4 2 4 3 3
11 10 9 8 7 7 6 6 6 5 4 4 4 4 4 3 3 4 4 6 7 6 5 4 6 7 7 5 4 6 5 4 4 4 3 2 2 2 1 4 1 3 5
10 8 7 6 7 7 8 6 5 6 4 3 3 2 3 1 2 6 4 3 1 4 4 4 2 3 3 3 4 4 3 4 4 4 4 4 3 3 4 4 4 3 3
9 7 6 6 6 5 6 7 11 9 6 7 7 2 5 9 7 8 8 9 7 3 3 3 4 3 2 3 3 4 2 4 6 5 5 3 3 4 3 3 2 3 2
10 7 7 7 6 6 5 5 7 5 5 7 7 8 9 8 7 6 4 4 3 3 4 1 1 2 0 2 3 4 3 4 3 4 6 4 4 4 3 1 1 1 1
8 4 7 6 5 5 5 5 6 6 6 7 3 3 7 6 4 2 1 3 4 4 4 1 3 3 3 3 3 3 2 2 1 1 1 0 2 3 2 1 2 6 6
6 6 5 5 4 4 5 4 4 4 3 5 7 4 6 5 4 3 3 5 6 4 5 5 5 6 4 2 1 1 2 2 3 1 1 0 2 4 2 2 5 4 5
6 5 2 4 5 3 3 3 2 2 1 2 4 4 7 5 6 8 6 4 5 5 3 3 2 2 3 0 1 1 3 3 2 1 4 3 1 2 2 1 2 2 0
6 5 4 3 2 1 1 2 2 2 3 4 3 5 11 4 6 4 3 3 4 4 1 2 1 2 2 3 3 4 3 3 4 4 3 4 3 3 2 1 2 1 2
4 5 3 1 3 2 1 2 3 4 5 4 3 8 11 5 7 7 3 4 4 2 2 3 3 5 5 4 3 5 5 3 3 3 2 3 3 3 3 2 2 2 3
2 3 6 4 2 4 5 6 5 4 5 5 5 3 8 6 6 8 5 4 2 3 3 3 4 3 3 3 4 3 4 3 3 3 3 3 4 3 2 3 2 3 2
3 4 4 3 2 4 6 6 5 4 6 6 8 8 6 6 6 7 5 4 4 4 4 4 4 5 4 4 3 3 4 0 2 3 4 2 2 3 5 2 1 5 3
8 7 5 6 2 5 3 5 7 6 7 8 8 8 9 8 7 7 5 4 2 5 6 5 5 4 5 5 4 11 8 13 8 9 3 1 3 3 4 3 3 3 4
4 2 4 5 5 6 7 8 8 9 9 5 7 7 6 9 8 8 6 5 4 4 6 5 5 4 5 5 2 12 8 9 4 6 6 1 2 3 2 1 2 4 5
Wind_Direction
198 191 200 200 200 210 222 218 226 245 253 263 257 263 260 245 246 255 278 298 272 227 262 281 285 276 279 298 325 291 263 269 294 331 331 122 328 284 5 336 290 115 106
195 195 196 207 211 207 217 218 215 226 218 236 242 247 242 252 244 235 240 268 233 236 249 255 259 267 253 245 259 250 273 323 292 321 280 296 235 129 206 266 308 131 112
195 194 201 202 205 217 210 216 219 214 214 226 215 232 236 243 245 246 246 255 255 265 266 256 252 251 289 272 321 311 315 273 217 286 281 289 240 339 244 234 228 75 95
193 198 196 204 209 212 214 210 215 220 223 236 224 225 227 244 243 247 266 263 260 251 269 272 269 260 258 268 235 277 272 298 308 309 307 296 152 267 0 332 210 143 154
191 193 198 200 212 214 219 214 217 216 214 222 229 227 228 236 242 235 234 231 248 268 289 287 268 298 79 44 282 269 322 270 305 301 254 257 283 326 256 282 329 65 197
184 195 190 193 207 215 215 226 205 231 233 211 226 223 233 290 61 34 325 233 240 259 262 291 306 296 254 149 240 274 282 263 258 265 295 336 339 327 332 299 288 100 249
191 190 192 193 202 212 220 219 222 222 230 226 230 227 226 131 74 36 8 270 261 264 250 239 257 290 307 240 199 207 216 210 249 280 273 287 304 303 296 275 276 292 291
185 176 173 207 213 201 228 231 229 229 225 230 242 244 210 89 50 3 308 265 262 251 239 248 231 246 296 312 282 264 257 100 354 305 273 9 346 335 309 291 281 252 226
179 188 192 205 216 248 248 239 234 234 229 208 143 66 74 89 47 3 325 267 252 269 30 43 355 313 33 2 300 279 253 115 65 60 86 94 67 17 8 291 253 268 247
186 165 166 135 119 249 43 332 43 187 118 111 82 59 39 71 40 3 346 313 353 251 233 127 61 20 350 353 304 292 266 220 194 147 178 195 203 84 42 26 354 328 36
110 116 87 65 98 223 119 67 340 131 113 99 92 79 74 33 33 16 8 333 315 308 22 39 39 17 14 37 27 347 304 305 229 201 187 178 78 55 40 23 20 22 0
118 124 143 133 117 76 83 71 72 78 63 91 101 104 80 60 43 28 58 66 38 65 73 50 63 52 49 43 57 18 27 34 41 47 49 34 29 39 32 37 35 52 43
105 96 90 83 73 90 110 107 98 97 109 113 102 83 81 68 87 74 56 52 35 121 91 95 84 66 88 72 36 44 52 56 68 60 59 56 358 0 325 35 7 44 34
95 97 97 94 92 85 85 100 103 101 102 115 130 137 153 154 188 158 133 102 97 92 131 80 86 97 75 96 56 45 55 57 81 91 106 84 24 19 37 306 257 229 209
96 94 93 98 100 90 71 20 88 65 28 101 108 109 94 123 45 64 32 20 45 74 141 127 92 12 54 98 113 126 144 137 128 153 164 178 192 199 217 199 236 225 256
118 115 119 122 98 96 103 100 57 62 73 84 63 75 98 84 73 51 31 21 27 79 250 216 151 155 167 165 181 197 53 188 169 178 207 215 224 193 198 181 232 303 319
118 119 124 131 123 132 141 127 116 98 79 82 74 61 67 114 88 63 77 125 167 300 247 194 156 129 9 4 357 9 85 36 360 355 354 28 352 57 290 235 202 283 157
114 93 128 137 122 117 116 122 140 155 151 151 146 112 109 117 126 98 71 293 189 218 271 192 182 185 182 183 200 195 187 144 128 134 176 164 319 317 244 241 34 9 359
142 112 117 121 98 106 134 147 124 116 107 120 137 187 154 167 177 210 240 257 286 274 213 200 221 202 193 172 197 61 315 56 355 290 334 165 19 302 56 11 93 38 327
86 24 354 126 149 159 162 141 126 128 213 220 216 137 146 167 206 195 194 229 259 269 247 260 221 235 114 215 159 165 137 210 147 267 24 59 325 357 74 24 9 310 289
128 137 343 215 138 82 330 232 207 256 233 235 231 79 62 308 299 294 304 221 253 272 209 249 103 223 183 185 208 189 227 207 197 197 196 195 189 227 241 194 276 316 340
168 155 164 188 97 187 278 307 280 272 272 284 274 145 141 229 261 270 227 242 235 256 250 195 198 198 207 202 219 244 223 229 191 209 220 234 216 203 228 241 268 254 232
219 198 171 192 162 94 229 234 257 276 286 293 289 260 184 218 250 253 235 245 205 238 233 222 213 232 225 234 235 245 264 220 203 225 215 206 235 247 230 241 220 243 284
274 245 278 284 145 289 310 295 276 233 257 283 292 295 279 279 269 256 254 240 211 224 228 233 239 219 201 246 229 222 218 34 140 171 273 260 236 153 259 261 259 31 330
319 349 321 295 185 231 299 274 304 314 310 297 304 307 298 289 280 281 277 240 215 180 223 220 244 222 216 213 244 78 78 64 37 343 206 338 1 32 327 288 15 46 8
239 360 331 328 325 340 328 324 322 318 309 250 245 251 271 295 294 305 302 278 248 239 213 208 222 226 186 190 153 108 96 75 86 30 334 191 177 221 199 267 91 265 180